Location: Domont
(49.0278°N, 2.3264°E)
Time: 05:23:57
(UTC+00:00)

Envisat - Pass Details

Date: 04 February 2022
Orbit: 764 x 765 km, 98.2° (Epoch: 22 May)

Event Time Altitude Azimuth Distance (km) Brightness Sun altitude
Rises 03:42:02 0° 25° (NNE) 3,243 6.7 -35.3°
Reaches altitude 10° 03:44:50 10° 40° (NE) 2,312 6.0 -34.9°
Maximum altitude 03:48:49 23° 91° (E) 1,599 5.2 -34.2°
Drops below altitude 10° 03:52:47 10° 143° (SE) 2,299 5.7 -33.6°
Sets 03:55:32 0° 158° (SSE) 3,220 6.3 -33.2°
